Wind_Speed
27 26 26 26 24 24 24 24 23 23 23 22 23 22 22 22 22 21 21 20 20 20 20 21 21 21 21 21 22 22 22 22 22 22 23 22 22 23 24 24 24 25 25 25
26 27 27 26 25 25 26 25 24 25 25 24 24 23 23 23 22 22 22 21 21 20 21 22 22 22 22 22 22 23 22 22 22 23 24 24 24 25 26 27 26 26 26 26
24 25 27 27 25 25 26 25 25 25 25 25 25 24 24 23 22 23 23 23 22 22 21 22 22 23 24 23 24 23 22 23 24 24 24 25 26 26 28 28 28 27 28 28
25 26 27 25 25 25 25 25 24 24 25 26 25 24 24 24 23 23 23 23 23 23 23 23 23 24 24 23 23 24 24 25 25 25 25 26 27 28 29 29 28 28 28 29
25 25 26 25 26 25 25 26 26 26 26 25 25 24 24 24 24 24 23 24 24 23 23 23 23 24 24 24 24 25 26 26 26 27 27 27 27 28 28 28 29 29 30 30
26 25 24 25 24 24 24 25 24 24 24 24 24 23 23 23 23 23 23 23 22 22 23 23 23 23 24 25 25 26 26 26 27 28 28 28 28 29 28 28 29 30 30 30
26 25 25 26 25 24 23 24 24 23 23 23 23 23 23 23 23 23 23 23 23 23 24 24 23 24 25 25 25 26 26 26 27 27 28 28 28 29 28 29 30 30 31 30
26 25 26 26 25 24 24 24 24 23 23 23 23 23 22 22 22 23 23 23 24 24 24 24 24 25 25 25 26 26 26 26 26 27 28 28 28 28 29 30 30 31 30 30
26 27 27 27 26 26 26 25 25 24 23 24 24 24 23 23 23 23 24 24 25 25 25 24 25 25 26 26 26 26 27 27 27 28 28 29 29 29 30 30 30 30 30 30
28 28 28 27 27 27 27 27 27 26 26 26 26 25 24 24 25 25 25 25 25 26 26 26 26 26 26 26 27 27 27 28 28 29 29 29 30 30 30 31 31 31 30 30
28 28 28 28 28 27 27 27 27 26 26 26 26 26 27 26 26 26 26 27 27 27 27 27 27 26 27 27 28 28 28 28 29 29 30 30 30 31 31 31 31 31 30 30
28 29 30 29 28 27 27 27 28 28 27 27 27 27 26 26 26 26 27 27 27 27 27 27 27 27 27 28 28 28 28 28 28 29 30 30 30 31 31 31 30 30 30 30
27 27 28 27 28 27 27 27 28 28 28 28 28 27 27 26 26 26 26 27 27 27 28 28 28 28 29 29 29 29 28 29 29 30 29 29 30 30 30 30 30 30 29 29
27 26 26 27 27 27 26 26 28 29 29 28 28 28 27 27 27 27 27 28 28 28 28 28 29 29 30 30 30 30 30 30 30 31 30 29 29 29 30 30 29 29 29 28
25 25 26 26 27 28 27 26 27 28 28 29 29 29 28 28 29 29 29 29 29 29 29 29 30 30 30 30 31 31 31 30 31 31 30 29 29 29 29 29 29 29 28 28
25 25 25 25 26 26 27 26 26 27 27 28 29 29 30 30 31 31 30 30 30 30 29 29 30 30 30 30 31 31 31 30 30 30 29 29 29 29 29 28 28 28 29 29
24 24 25 25 25 25 25 25 25 25 26 27 28 29 30 31 32 30 29 30 30 30 30 30 30 30 30 30 30 30 30 30 29 28 28 28 28 29 29 29 28 28 29 29
23 23 23 23 23 23 24 24 24 24 25 25 26 28 29 30 30 30 29 29 30 30 30 30 30 30 30 30 30 30 30 30 30 29 28 28 28 28 29 29 29 29 29 29
21 21 21 22 22 22 23 23 23 24 25 25 25 26 27 28 28 27 27 28 29 29 29 29 30 30 29 29 30 30 30 30 29 29 28 28 28 28 29 29 29 29 29 29
19 20 21 22 22 22 23 23 23 25 25 25 26 26 26 25 25 26 27 28 28 28 29 29 29 29 30 30 30 30 30 29 29 29 28 28 29 29 29 29 29 29 29 30
18 19 20 20 20 21 22 22 23 24 25 25 25 25 25 25 26 26 27 27 27 28 28 29 29 29 29 30 30 30 29 28 28 28 28 28 28 29 29 29 29 29 29 29
17 18 19 19 19 19 20 20 21 22 22 23 24 25 25 25 25 26 26 26 26 27 28 29 29 29 29 29 29 29 28 28 28 28 28 27 28 28 29 28 27 27 28 28
17 18 18 19 19 18 18 19 19 20 20 21 22 23 23 23 24 24 24 24 25 26 27 27 28 28 28 28 27 27 27 27 27 27 26 26 27 27 27 27 26 26 26 26
17 17 17 18 18 17 17 18 18 18 18 19 20 21 21 21 21 22 23 23 24 24 25 25 25 26 26 26 26 26 26 26 25 25 26 26 26 26 26 25 25 25 25 25
15 15 16 16 17 17 17 17 17 17 17 18 19 20 21 20 20 21 22 22 22 23 23 23 23 24 24 24 24 24 24 23 24 24 25 25 24 24 24 24 24 23 23 22
13 13 14 15 16 16 17 17 17 17 17 18 19 19 19 19 19 20 20 19 19 20 20 21 21 21 21 21 21 22 22 22 22 22 22 23 22 22 22 22 21 21 21 21
12 13 14 15 15 16 17 17 18 18 18 18 18 17 17 17 17 17 16 16 16 17 18 18 19 19 19 20 20 21 20 20 20 20 21 21 21 20 20 20 20 20 20 20
Wind_Direction
249 250 254 256 256 256 256 256 258 261 263 265 266 268 267 267 269 270 271 271 271 274 276 276 275 276 277 278 280 281 282 284 287 286 288 288 288 288 286 287 289 290 290 291
254 251 254 256 256 257 257 259 262 263 266 265 265 265 266 266 266 265 267 269 271 275 277 276 276 276 276 277 280 283 286 286 287 288 287 288 288 288 287 288 289 291 290 292
256 255 255 258 258 260 262 261 262 263 265 267 268 265 264 265 265 263 265 267 270 274 277 275 275 274 275 280 282 283 284 285 286 287 287 288 289 289 288 289 291 292 292 293
256 257 257 258 258 260 262 263 263 261 261 262 262 262 261 261 262 263 265 267 270 274 275 277 277 277 279 282 282 282 284 285 285 286 288 287 288 290 292 291 291 293 292 292
257 259 262 259 258 259 260 260 262 260 260 259 261 261 260 260 260 262 266 270 272 274 276 277 279 279 280 282 283 284 285 286 288 288 288 289 290 291 292 291 292 293 293 292
256 257 260 260 259 260 263 261 260 259 258 258 261 263 261 259 260 263 266 271 273 275 276 277 278 279 281 284 285 286 286 287 289 291 292 291 292 293 291 291 293 295 294 293
255 257 260 261 262 264 263 259 260 259 258 260 261 260 260 262 262 263 266 270 274 276 278 280 281 282 285 287 287 288 288 288 289 290 291 292 292 291 292 293 295 296 296 294
254 256 259 261 263 262 262 260 260 260 259 261 262 262 262 264 266 266 268 271 273 275 277 279 281 282 284 286 287 288 289 289 289 290 292 293 293 293 295 295 295 296 296 295
252 254 257 261 262 262 260 259 259 259 258 259 259 260 263 266 266 265 267 270 273 273 275 277 279 281 284 286 287 288 288 289 290 291 292 291 291 294 295 294 295 296 296 296
252 254 256 258 260 260 260 259 258 258 258 258 259 262 264 264 266 267 268 271 273 273 275 277 278 279 282 284 284 286 287 288 290 291 291 291 291 292 292 293 295 297 296 297
253 254 255 257 258 259 259 258 258 258 259 260 261 261 261 262 264 267 269 271 272 273 275 278 277 279 282 284 285 285 286 288 290 291 292 292 291 291 291 293 295 296 297 296
253 252 254 255 257 259 259 259 257 257 258 260 261 262 264 265 267 268 269 271 273 272 274 277 279 281 282 283 284 285 286 287 289 291 291 292 291 292 293 295 295 295 295 296
254 254 256 257 256 258 259 259 258 257 258 260 259 260 263 265 266 268 269 271 272 273 275 277 280 282 283 284 285 284 285 286 287 290 290 291 291 292 293 295 295 295 296 295
255 257 258 257 257 258 259 258 257 257 258 259 260 261 262 263 265 267 268 269 270 272 274 278 280 281 283 284 286 287 286 286 287 288 289 290 292 293 294 295 295 295 297 297
255 256 258 258 258 258 258 258 257 257 257 258 259 261 261 263 265 266 267 268 269 270 273 277 279 281 283 285 286 287 287 287 287 287 290 292 293 294 296 295 294 295 297 299
255 257 259 259 258 259 259 259 259 260 259 259 259 260 260 262 264 265 266 268 270 271 273 277 279 280 283 285 286 287 287 286 286 287 289 290 291 293 295 295 295 296 298 300
256 256 257 257 257 258 258 258 261 262 261 261 261 261 262 263 265 265 266 267 269 271 273 275 277 279 281 284 286 287 288 288 286 287 289 290 291 292 293 294 295 296 298 300
258 258 257 257 257 258 259 259 260 261 261 262 263 264 265 264 265 266 267 270 272 274 276 278 279 279 280 283 284 287 288 290 289 289 290 292 293 293 294 295 294 296 299 300
257 257 256 256 257 259 260 261 262 264 265 266 266 267 267 266 264 264 267 270 273 275 277 279 279 280 281 283 284 286 288 291 291 290 291 292 292 293 294 295 294 295 297 299
258 258 257 256 256 257 259 261 263 265 265 265 266 267 267 267 265 265 267 270 273 275 277 280 281 281 282 283 285 288 289 290 291 291 290 290 291 291 292 294 293 295 297 298
257 257 259 261 259 260 261 263 264 265 264 264 265 267 268 268 269 269 270 271 274 276 278 280 282 283 283 284 285 286 287 288 289 288 288 289 291 292 293 293 292 292 294 296
257 259 261 263 264 265 265 267 269 269 267 266 266 268 270 270 271 271 272 273 275 276 278 279 281 283 284 284 284 285 286 287 288 287 287 289 291 292 293 293 292 293 294 295
260 262 263 263 265 265 266 268 270 271 271 270 270 270 271 273 274 274 274 275 276 277 280 281 281 283 283 283 282 284 285 286 287 288 289 291 293 293 293 294 292 293 295 296
262 262 264 265 267 268 269 271 272 275 276 274 273 274 275 276 277 277 277 277 279 279 280 281 282 283 284 284 284 284 285 286 287 287 289 292 293 293 293 294 293 294 295 296
264 264 267 267 266 270 272 273 277 279 277 275 275 276 279 280 280 280 280 280 279 280 281 282 283 284 284 285 285 286 287 288 288 289 291 293 293 293 294 295 295 295 296 298
259 262 265 268 269 272 274 275 277 279 277 276 278 280 281 281 280 280 281 282 282 283 284 284 286 286 286 287 290 292 291 290 290 291 293 294 294 294 295 295 295 296 298 299
260 264 268 269 271 274 277 278 280 280 279 280 280 281 281 282 284 284 284 284 285 286 287 288 289 288 288 291 293 294 293 292 292 291 293 294 294 295 296 296 297 299 299 298
Height
5846 5847 5848 5849 5850 5852 5853 5854 5856 5857 5857 5857 5857 5857 5857 5857 5857 5857 5857 5856 5856 5855 5855 5854 5853 5852 5851 5850 5848 5846 5845 5843 5842 5840 5839 5837 5835 5833 5831 5829 5827 5825 5823 5820
5839 5840 5841 5842 5843 5845 5846 5847 5848 5849 5850 5850 5849 5850 5850 5851 5851 5850 5850 5850 5850 5849 5849 5848 5847 5846 5845 5843 5842 5840 5839 5837 5836 5834 5833 5831 5829 5827 5825 5822 5820 5818 5816 5813
5832 5833 5833 5835 5837 5838 5839 5840 5841 5842 5843 5842 5842 5843 5843 5844 5844 5844 5844 5844 5844 5844 5843 5842 5841 5840 5839 5837 5836 5835 5833 5831 5830 5828 5826 5824 5822 5820 5818 5816 5813 5811 5808 5806
5825 5826 5827 5831 5830 5830 5831 5832 5833 5834 5835 5835 5835 5836 5836 5837 5837 5838 5838 5838 5838 5837 5836 5835 5834 5833 5832 5831 5830 5828 5827 5825 5823 5821 5820 5818 5815 5813 5811 5809 5806 5803 5801 5798
5819 5819 5820 5822 5822 5823 5824 5824 5825 5826 5827 5828 5828 5829 5830 5830 5830 5831 5831 5831 5831 5830 5830 5829 5828 5827 5826 5824 5823 5822 5820 5818 5816 5814 5812 5810 5807 5805 5803 5801 5798 5796 5793 5790
5812 5813 5814 5816 5815 5815 5817 5817 5818 5819 5820 5821 5822 5823 5823 5823 5823 5824 5824 5824 5824 5823 5823 5822 5822 5821 5820 5818 5817 5815 5813 5811 5809 5807 5805 5803 5800 5798 5796 5793 5790 5788 5785 5782
5804 5805 5807 5807 5807 5809 5811 5811 5810 5812 5813 5814 5815 5816 5816 5816 5816 5817 5817 5817 5817 5816 5816 5816 5815 5814 5813 5811 5810 5808 5806 5804 5803 5801 5798 5796 5793 5791 5788 5785 5783 5780 5777 5773
5797 5798 5801 5798 5800 5802 5802 5802 5803 5805 5806 5807 5808 5808 5809 5809 5810 5810 5810 5810 5810 5810 5809 5809 5808 5807 5806 5805 5803 5801 5799 5797 5795 5793 5791 5788 5785 5783 5780 5777 5774 5771 5768 5765
5789 5791 5791 5791 5792 5793 5794 5795 5796 5797 5798 5800 5801 5801 5802 5803 5803 5803 5803 5804 5803 5803 5802 5802 5801 5800 5799 5797 5795 5794 5792 5790 5788 5786 5783 5780 5778 5775 5772 5769 5766 5763 5760 5757
5780 5781 5782 5783 5784 5785 5786 5787 5788 5789 5791 5792 5793 5794 5795 5796 5796 5796 5796 5796 5796 5796 5795 5794 5794 5793 5791 5790 5788 5786 5785 5783 5780 5778 5775 5772 5770 5767 5764 5761 5758 5755 5752 5748
5771 5772 5773 5774 5776 5777 5778 5779 5781 5782 5783 5784 5786 5786 5787 5788 5788 5789 5789 5789 5789 5788 5788 5787 5786 5785 5784 5782 5780 5779 5777 5774 5772 5770 5767 5765 5762 5759 5756 5753 5750 5747 5744 5740
5762 5763 5765 5766 5767 5769 5770 5771 5772 5774 5775 5776 5778 5778 5779 5780 5780 5781 5781 5781 5781 5780 5780 5779 5778 5777 5776 5774 5772 5770 5768 5766 5764 5762 5759 5756 5753 5751 5747 5745 5742 5739 5736 5732
5753 5754 5756 5757 5759 5760 5761 5763 5763 5765 5766 5768 5769 5770 5771 5772 5772 5773 5773 5773 5773 5773 5772 5771 5770 5769 5767 5766 5764 5762 5760 5758 5756 5753 5751 5748 5745 5743 5740 5737 5733 5731 5727 5724
5745 5747 5748 5749 5750 5751 5753 5754 5755 5756 5758 5759 5760 5761 5762 5763 5764 5764 5765 5765 5765 5764 5764 5763 5762 5761 5759 5757 5755 5753 5751 5749 5747 5744 5742 5740 5737 5734 5731 5728 5726 5723 5720 5717
5737 5739 5740 5741 5742 5743 5745 5746 5747 5748 5749 5750 5751 5753 5754 5755 5755 5756 5756 5756 5756 5756 5755 5754 5753 5752 5751 5749 5747 5745 5743 5740 5738 5736 5733 5731 5728 5726 5723 5721 5718 5715 5712 5709
5730 5731 5732 5733 5734 5735 5737 5738 5739 5740 5741 5742 5743 5744 5744 5745 5746 5747 5747 5747 5747 5747 5746 5745 5745 5744 5742 5740 5738 5736 5734 5731 5729 5727 5724 5722 5720 5717 5715 5712 5710 5707 5704 5701
5722 5724 5725 5726 5727 5727 5728 5730 5730 5731 5732 5733 5733 5734 5735 5736 5737 5737 5737 5738 5738 5738 5737 5737 5736 5734 5733 5731 5729 5727 5725 5723 5720 5718 5716 5714 5711 5709 5706 5704 5701 5699 5696 5693
5715 5716 5717 5718 5719 5720 5721 5722 5722 5723 5724 5724 5725 5726 5726 5727 5727 5728 5728 5729 5729 5729 5728 5727 5726 5725 5724 5722 5720 5718 5716 5714 5712 5710 5708 5705 5703 5700 5698 5695 5693 5690 5687 5684
5708 5709 5710 5711 5712 5713 5714 5714 5715 5716 5716 5717 5717 5717 5718 5718 5718 5719 5719 5720 5720 5719 5719 5718 5717 5716 5715 5713 5711 5709 5707 5705 5703 5701 5699 5697 5694 5692 5689 5686 5684 5681 5678 5675
5702 5703 5704 5704 5705 5706 5706 5707 5708 5708 5708 5709 5709 5709 5709 5709 5710 5710 5710 5711 5711 5710 5710 5709 5708 5707 5705 5704 5702 5701 5699 5697 5695 5693 5691 5688 5686 5683 5680 5677 5675 5672 5669 5666
5696 5697 5697 5698 5698 5699 5699 5700 5700 5700 5700 5701 5700 5701 5701 5701 5701 5701 5701 5701 5702 5701 5700 5700 5698 5697 5696 5694 5693 5691 5690 5688 5686 5684 5682 5679 5677 5674 5672 5669 5666 5663 5660 5658
5690 5691 5691 5692 5692 5692 5692 5693 5693 5693 5693 5693 5693 5693 5693 5693 5692 5692 5692 5693 5693 5692 5691 5690 5689 5688 5687 5685 5684 5682 5681 5679 5677 5675 5672 5670 5668 5665 5663 5660 5657 5654 5652 5649
5685 5685 5685 5686 5686 5686 5686 5686 5686 5686 5685 5685 5685 5685 5685 5685 5684 5684 5684 5684 5684 5683 5683 5682 5680 5679 5678 5676 5675 5673 5672 5670 5668 5666 5664 5662 5659 5657 5654 5651 5649 5646 5644 5641
5679 5679 5679 5680 5680 5680 5680 5680 5680 5679 5679 5678 5678 5678 5678 5677 5677 5677 5677 5676 5676 5675 5674 5673 5672 5670 5669 5667 5666 5664 5663 5661 5659 5657 5655 5653 5651 5648 5646 5643 5641 5638 5636 5633
5674 5674 5674 5674 5675 5675 5675 5674 5674 5674 5673 5673 5672 5672 5671 5671 5670 5670 5669 5668 5668 5667 5666 5665 5664 5662 5661 5659 5658 5656 5654 5653 5651 5649 5647 5645 5643 5640 5638 5636 5633 5631 5628 5625
5669 5669 5670 5670 5670 5670 5670 5669 5669 5668 5668 5667 5667 5666 5665 5664 5664 5663 5662 5661 5660 5660 5659 5658 5656 5655 5653 5652 5650 5648 5646 5645 5643 5641 5639 5637 5635 5633 5631 5628 5626 5624 5621 5619
5665 5665 5665 5665 5665 5665 5665 5664 5664 5663 5662 5661 5661 5660 5659 5658 5658 5657 5656 5655 5654 5653 5652 5651 5649 5648 5647 5645 5643 5641 5639 5638 5636 5634 5632 5630 5628 5626 5624 5622 5620 5617 5615 5613